{"data":{"norad_id":61778,"epoch":"2026-09-22T22:21:58.787424Z","epoch_age_seconds":92633,"freshness":"FRESH","line1":"1 61778U 24199AV  26265.93193041  .00063301  00000+0  56628-3 0  9997","line2":"2 61778  97.2692 144.5352 0002101 276.6678  83.4345 15.68172346149684","mean_motion":15.68172346,"eccentricity":0.0002101,"inclination_deg":97.2692,"raan_deg":144.5352,"arg_perigee_deg":276.6678,"mean_anomaly_deg":83.4345,"bstar":0.00056628,"rev_number":14968,"period_min":91.82664161073,"perigee_km":362.71397224111,"apogee_km":365.54707305412,"semimajor_km":6742.2675226476,"source":"CELESTRAK","updated_at":"2026-09-23T09:00:21.036083Z"}}